Location: Nelson
(41.2830°S, 173.2830°E)
Time: 22:36:47
(UTC+12:00)

Cosmos 2237 Rocket - Pass Details

Date: 24 January 2019
Orbit: 834 x 850 km, 71.0° (Epoch: 17 April)

Event Time Altitude Azimuth Distance (km) Brightness Sun altitude
Exits shadow 23:52:39 29° 97° (E) 1,523 3.3 -24.7°
Drops below altitude 10° 23:56:30 10° 137° (SE) 2,492 4.9 -25.0°
Sets 23:59:12 0° 146° (SE) 3,432 5.8 -25.2°
